Regional Weather Roundup
Issued by NWS

Home | Current Version | Previous Version | Graphics & Text | Print | Product List | Glossary On
Versions: 1 2 3 4 5 6 7 8 9 10 11 12 13 14 15 16 17 18 19 20 21 22 23 24 25 26 27 28 29 30 31 32 33 34 35 36 37 38 39 40 41 42 43 44 45 46 47 48 49 50
000
ASUS43 KIND 241209
RWRIN

WEATHER ROUNDUP FOR INDIANA
NATIONAL WEATHER SERVICE INDIANAPOLIS IN
800 AM EDT FRI OCT 24 2014

NOTE: "FAIR" INDICATES FEW OR NO CLOUDS BELOW 12,000 FEET WITH NO
SIGNIFICANT WEATHER AND/OR OBSTRUCTIONS TO VISIBILITY.

* - STATION DOES NOT REPORT WEATHER SUCH AS PRECIPITATION OR FOG.

+ - STATION NOT QUALITY CONTROLLED BY THE NATIONAL WEATHER SERVICE.
    USE DATA WITH CAUTION...ESPECIALLY DEWPOINT AND RELATIVE
    HUMIDITY OBSERVATIONS.

INZ001>003-010>013-019-020-241300-
NORTHWEST INDIANA

CITY           SKY/WX    TMP DP  RH WIND       PRES   REMARKS
GARY /AIRPORT/ CLOUDY    54  46  76 SW3       30.07S
KNOX *+        CLOUDY    48  45  89 S3        30.06F
LA PORTE +     CLOUDY    51  47  86 SW5       30.07S
6HR MIN TEMP:  51; 6HR MAX TEMP:  51;

MICHIGAN CITY+ CLOUDY    50  43  76 SW5       30.07S
MONTICELLO +   CLOUDY    48  46  95 S3        30.08S
RENSSELAER +   MOCLDY    46  46 100 SE3       30.07F
VALPARAISO     CLOUDY    50  45  83 S3        30.07S
6HR MIN TEMP:  50; 6HR MAX TEMP:  51;


$$

LMZ046-743>745-241300-
SOUTHERN LAKE MICHIGAN

STATION/POSITION TIME  TEMP WIND        PRES
                       AIR  DIR/SP/G
                 (UTC) (F)  (DEG/KT/KT) (MB)
MICHIGAN CITY    1200   53  180/  6/  8   N/A

$$

INZ004-005-014>016-021>024-241300-
NORTH CENTRAL INDIANA

CITY           SKY/WX    TMP DP  RH WIND       PRES   REMARKS
ELKHART        CLOUDY    48  43  81 S3        30.07F
GOSHEN         CLOUDY    47  44  90 S3        30.07F
6HR MIN TEMP:  41; 6HR MAX TEMP:  47; 6HR PCP: TRACE;

LOGANSPORT +   CLOUDY    46  43  87 S3        30.09F
PERU/GRISSOM   LGT RAIN  47  47 100 SW5       30.09S FOG
6HR MIN TEMP:  40; 6HR MAX TEMP:  47; 6HR PCP: TRACE;

ROCHESTER +    CLOUDY    50  46  87 CALM      30.08F
SOUTH BEND     CLOUDY    50  44  80 S5        30.07F
6HR MIN TEMP:  50; 6HR MAX TEMP:  51;

WARSAW +       CLOUDY    45  45 100 CALM      30.08F FOG

$$

INZ006>009-017-018-025>027-241300-
NORTHEAST INDIANA

CITY           SKY/WX    TMP DP  RH WIND       PRES   REMARKS
ANGOLA *+      MOCLDY    39  37  93 CALM      30.07F
AUBURN +       CLOUDY    39  36  87 CALM      30.08F FOG
FORT WAYNE     MOCLDY    42  39  89 CALM      30.10S
6HR MIN TEMP:  36; 6HR MAX TEMP:  42;

HUNTINGTON +   MOCLDY    42  40  91 CALM      30.08F
6HR MIN TEMP:  36; 6HR MAX TEMP:  43;


$$

INZ028-029-035-036-043>045-051>053-241300-
WEST CENTRAL INDIANA

CITY           SKY/WX    TMP DP  RH WIND       PRES   REMARKS
CRAWFORDSVL +  CLOUDY    45  45 100 CALM      30.10
GREENCASTLE +  CLOUDY    43  41  93 CALM      30.11S
LAFAYETTE      CLOUDY    47  45  93 CALM      30.09F
6HR MIN TEMP:  43; 6HR MAX TEMP:  47; 6HR PCP:  0.02;

TERRE HAUTE    CLOUDY    48  45  89 SE5       30.10F
6HR MIN TEMP:  41; 6HR MAX TEMP:  48; 6HR PCP:  0.27;


$$

INZ030>032-037>040-046>048-054>057-064-065-241300-
CENTRAL INDIANA

CITY           SKY/WX    TMP DP  RH WIND       PRES   REMARKS
CP ATTERBURY + CLEAR     34  32  93 CALM      30.12F
FRANKFORT +    LGT RAIN N/A N/A N/A CALM      30.11S
GREENWOOD *+   PTCLDY    37  34  87 CALM      30.12
INDIANAPOLIS   PTCLDY    41  38  89 SW3       30.10S
6HR MIN TEMP:  40; 6HR MAX TEMP:  46;

-EAGLE CREEK   MOCLDY    42  40  92 CALM      30.10F
6HR MIN TEMP:  40; 6HR MAX TEMP:  44;

KOKOMO *+      CLOUDY    46  39  76 S6        30.10S
MARION +       PTCLDY    40  37  89 S5        30.10F
MT COMFORT *+  CLEAR     37 N/A N/A CALM      30.12R
SHELBYVILLE    CLEAR     36  34  92 CALM      30.11S FOG
6HR MIN TEMP:  36; 6HR MAX TEMP:  43;

ZIONSVILLE +   PTCLDY    38  36  90 CALM      30.11S
6HR MIN TEMP:  38; 6HR MAX TEMP:  41;


$$

INZ033-034-041-042-049-050-058-059-241300-
EAST CENTRAL INDIANA

CITY           SKY/WX    TMP DP  RH WIND       PRES   REMARKS
MUNCIE         CLEAR     43  38  82 S6        30.10S
6HR MIN TEMP:  37; 6HR MAX TEMP:  43;


$$

INZ060-061-067>069-081>083-085>088-241300-
SOUTHWEST INDIANA

CITY           SKY/WX    TMP DP  RH WIND       PRES   REMARKS
EVANSVILLE     CLOUDY    49  46  90 CALM      30.13S
6HR MIN TEMP:  42; 6HR MAX TEMP:  49;

HUNTINGBURG *+ CLOUDY    43  39  87 CALM      30.13F
6HR MIN TEMP:  37; 6HR MAX TEMP:  45;

WASHINGTON +   CLOUDY    46  46  99 SE3       30.11F
6HR MIN TEMP:  37; 6HR MAX TEMP:  46;


$$

INZ062-063-066-070>080-084-089>092-241300-
SOUTH CENTRAL AND SOUTHEAST INDIANA

CITY           SKY/WX    TMP DP  RH WIND       PRES   REMARKS
BEDFORD +      CLEAR     37  36  93 CALM      30.13  FOG
BLOOMINGTON    CLOUDY    40  40 100 CALM      30.11F
6HR MIN TEMP:  35; 6HR MAX TEMP:  41;

NORTH VERNON + CLEAR     39  39 100 CALM      30.13  FOG
SEYMOUR +      FOG       36  34  93 CALM      30.12  VSB 3/4

$$




USA.gov is the U.S. government's official web portal to all federal, state and local government web resources and services.